[[{"header":{"parameterUnit":"m.s-1","parameterCategory":1,"la1":30.2992,"la2":30.254,"lo1":-89.0895,"lo2":-89.0443,"dy":0.0025,"dx":0.0025,"nx":19,"ny":19,"refTime":"2026-04-10T09:00:00:Z","depth":0,"parameterNumber":2,"parameterNumberName":"U-component_of_WINDS"},"data":[0,0,0,-3.43,-3.4302,-3.4368,-3.4368,-3.4476,-3.4477,0,0,0,0,0,0,0,0,0,0,0,-3.4295,-3.4297,-3.43,-3.4302,-3.4368,-3.4368,-3.4475,-3.4477,0,0,0,0,0,0,0,0,0,0,0,-3.4295,-3.4296,-3.4298,-3.4302,-3.4368,-3.4368,-3.4475,-3.4417,0,0,0,0,0,0,0,0,0,0,-3.4348,-3.4359,-3.4296,-3.4298,-3.4303,-3.4368,-3.4368,-3.4414,-3.442,-3.4456,0,-3.4493,0,-3.4487,-3.4486,-3.4486,0,0,0,-3.429,-3.4354,-3.4358,-3.4298,-3.4303,-3.4368,-3.4335,-3.4417,-3.4425,-3.4465,-3.4494,-3.4497,-3.4488,-3.4486,-3.4487,-3.4731,-3.4733,0,0,-3.4286,-3.4315,-3.4353,-3.4364,-3.4357,-3.4333,-3.4337,-3.4421,-3.4454,-3.4494,-3.4499,-3.449,-3.4487,-3.4488,-3.473,-3.4732,0,0,0,-3.4284,-3.4313,-3.4315,-3.436,-3.437,-3.4335,-3.434,-3.445,-3.4449,-3.45,-3.4492,-3.4488,-3.449,-3.4728,-3.473,-3.484,0,0,0,-3.4281,-3.4312,-3.4314,-3.4332,-3.4369,-3.4412,-3.4368,-3.4443,-3.4451,-3.4491,-3.4488,-3.4491,-3.4726,-3.4729,-3.4833,-3.4887,0,0,0,-3.4286,-3.4312,-3.4327,-3.4334,-3.4363,-3.441,-3.4412,-3.4444,-3.4447,-3.4486,-3.4491,-3.4725,-3.4729,-3.4827,-3.4876,-3.4957,0,0,0,-3.4299,-3.4425,-3.4329,-3.4466,-3.4363,-3.4478,-3.4411,-3.4496,-3.4543,-3.4489,-3.4726,-3.473,-3.4825,-3.487,-3.4951,-3.5029,-3.5065,0,0,-3.4474,-3.4447,-3.4525,-3.4441,-3.4581,-3.4466,-3.462,-3.4636,-3.4614,-3.4693,-3.4699,-3.4835,-3.4876,-3.4956,-3.5261,-3.529,0,0,0,-3.459,-3.4646,-3.4677,-3.4723,-3.4739,-3.4755,-3.4744,-3.475,-3.4815,-3.4661,-3.4887,-3.491,-3.4956,-3.4992,-3.5016,-3.5053,-3.4749,-3.4748,-3.4748,-3.4877,-3.4841,-3.4967,-3.4939,-3.4985,-3.4972,-3.5004,-3.5009,-3.4961,-3.5015,-3.5037,-3.5227,-3.527,-3.5288,-3.5327,-3.5078,-3.5078,-3.5079,-3.5079,-3.5128,-3.52,-3.5131,-3.5228,-3.5189,-3.527,-3.5262,-3.5224,-3.5293,-3.5207,-3.5246,-3.5154,-3.5321,-3.5353,-3.5087,-3.5085,-3.5084,-3.5084,-3.5083,-3.531,-3.5338,-3.5343,-3.5404,-3.5456,-3.5423,-3.5491,-3.5453,-3.5419,-3.5457,-3.5475,-3.5473,-3.5464,-3.5469,-3.5469,-3.547,-3.5471,-3.5471,-3.5471,-3.5496,-3.5498,-3.556,-3.5586,-3.5609,-3.5635,-3.5623,-3.5645,-3.5659,-3.5626,-3.5626,-3.557,-3.5346,-3.5288,-3.5481,-3.548,-3.5478,-3.5477,-3.5477,-3.5759,-3.5693,-3.5789,-3.5813,-3.5839,-3.5891,-3.5842,-3.5889,-3.5902,-3.5936,-3.5872,-3.5714,-3.5683,-3.5663,-3.5615,-3.5881,-3.5881,-3.5881,-3.5882,-3.5911,-3.5892,-3.598,-3.602,-3.6054,-3.602,-3.6127,-3.6119,-3.6099,-3.6104,-3.6061,-3.5995,-3.5977,-3.5957,-3.5931,-3.5885,-3.6214,-3.6214,-3.6215,-3.6069,-3.6051,-3.6151,-3.613,-3.6147,-3.6162,-3.6262,-3.6309,-3.6273,-3.6227,-3.6106,-3.6092,-3.5986,-3.5954,-3.5903,-3.5863,-3.5779,0,0]},{"header":{"parameterUnit":"m.s-1","parameterCategory":1,"la1":30.2992,"la2":30.254,"lo1":-89.0895,"lo2":-89.0443,"dy":0.0025,"dx":0.0025,"nx":19,"ny":19,"refTime":"2026-04-10T09:00:00:Z","depth":0,"parameterNumber":3,"parameterNumberName":"V-component_of_WINDS"},"data":[0,0,0,2.721,2.721,2.7223,2.7223,2.7276,2.7276,0,0,0,0,0,0,0,0,0,0,0,2.7228,2.7229,2.721,2.7211,2.7223,2.7223,2.7276,2.7276,0,0,0,0,0,0,0,0,0,0,0,2.7227,2.7228,2.723,2.7211,2.7223,2.7223,2.7275,2.7253,0,0,0,0,0,0,0,0,0,0,2.7234,2.7272,2.7228,2.723,2.7211,2.7223,2.7223,2.7251,2.7254,2.7285,0,2.7318,0,2.7298,2.7282,2.7283,0,0,0,2.7195,2.727,2.7253,2.723,2.7211,2.7223,2.7213,2.7253,2.7256,2.729,2.7319,2.732,2.7299,2.7283,2.7283,2.7513,2.7515,0,0,2.7194,2.7242,2.7251,2.7257,2.7256,2.7213,2.7214,2.7254,2.7289,2.7319,2.732,2.73,2.7283,2.7284,2.7512,2.7514,0,0,0,2.7203,2.7242,2.7224,2.7256,2.7255,2.7213,2.7214,2.7287,2.7277,2.732,2.7301,2.7284,2.7285,2.751,2.7512,2.7648,0,0,0,2.7201,2.7247,2.7224,2.7254,2.7255,2.7271,2.7248,2.7275,2.7277,2.73,2.7284,2.7286,2.7507,2.7511,2.764,2.7705,0,0,0,2.7219,2.7249,2.7258,2.7256,2.7263,2.7269,2.7261,2.7274,2.7267,2.7283,2.7286,2.7506,2.751,2.7633,2.7692,2.7779,0,0,0,2.7253,2.7379,2.7261,2.7395,2.7264,2.7353,2.726,2.7325,2.7355,2.7284,2.7508,2.7512,2.763,2.7685,2.7771,2.786,2.7901,0,0,2.7439,2.7404,2.7478,2.7373,2.7495,2.7347,2.749,2.7473,2.7431,2.7489,2.7493,2.7643,2.7692,2.7777,2.8116,2.815,0,0,0,2.7554,2.7608,2.763,2.7661,2.765,2.7646,2.7602,2.7595,2.7641,2.747,2.7696,2.7723,2.7772,2.7812,2.784,2.7878,2.7533,2.7532,2.7532,2.7887,2.7826,2.7945,2.7886,2.7917,2.7869,2.7888,2.7871,2.7802,2.7856,2.7873,2.8086,2.8135,2.8155,2.8196,2.7915,2.7915,2.7916,2.7916,2.8154,2.8222,2.8124,2.8206,2.8141,2.8208,2.8168,2.8116,2.817,2.8068,2.8108,2.8003,2.8194,2.8226,2.7925,2.7924,2.7923,2.7922,2.7921,2.8366,2.8387,2.8376,2.8413,2.8448,2.8384,2.844,2.8378,2.8321,2.836,2.8371,2.8369,2.8358,2.837,2.8371,2.8371,2.8372,2.8372,2.8373,2.8589,2.8572,2.8626,2.8625,2.8636,2.8642,2.8596,2.8605,2.86,2.8551,2.8551,2.8476,2.8224,2.8162,2.8384,2.8382,2.8381,2.838,2.8379,2.8883,2.8806,2.889,2.8901,2.8893,2.8933,2.8853,2.8878,2.8877,2.8907,2.8823,2.8646,2.8606,2.8583,2.8531,2.8836,2.8836,2.8836,2.8836,2.9061,2.9034,2.9105,2.9126,2.914,2.9077,2.9174,2.9139,2.9091,2.9087,2.9034,2.896,2.8939,2.8911,2.8881,2.8831,2.9206,2.9206,2.9206,2.9238,2.9209,2.9303,2.9253,2.9243,2.9236,2.9325,2.9355,2.9285,2.922,2.9082,2.9067,2.8946,2.891,2.8843,2.8798,2.8706,0,0]}]]